| time (UTC) | temp C | wind direction | speed KPH | gust KPH | rain 1hr cm | rain 24hr cm | rain mn cm | humidity % | barometer mb |
| 20260905015937 | 24 | 75 | 0.0 | 0.0 | 0.00 | 0.00 | 0.00 | 36 | 3062.2 |
| 20260905014937 | 25 | 75 | 0.0 | 0.0 | 0.00 | 0.00 | 0.00 | 35 | 3062.3 |
| 20260905014437 | 25 | 75 | 0.0 | 3.2 | 0.00 | 0.00 | 0.00 | 34 | 3063.4 |
| 20260905013936 | 26 | 75 | 0.0 | 6.4 | 0.00 | 0.00 | 0.00 | 31 | 3063.0 |
| 20260905013437 | 26 | 225 | 0.0 | 6.4 | 0.00 | 0.00 | 0.00 | 30 | 3062.6 |
| 20260905012937 | 26 | 65 | 0.0 | 6.4 | 0.00 | 0.00 | 0.00 | 30 | 3064.0 |
| 20260905012437 | 26 | 35 | 0.0 | 4.8 | 0.00 | 0.00 | 0.00 | 30 | 3063.9 |
| 20260905012006 | 26 | 273 | 0.0 | 8.0 | 0.00 | 0.00 | 0.00 | 29 | 3063.5 |
| 20260905010936 | 26 | 95 | 0.0 | 11.3 | 0.00 | 0.00 | 0.00 | 29 | 3060.9 |
| 20260905010436 | 26 | 23 | 0.0 | 11.3 | 0.00 | 0.00 | 0.00 | 29 | 3060.7 |
| 20260905005936 | 27 | 168 | 1.6 | 12.9 | 0.00 | 0.00 | 0.00 | 29 | 3060.5 |
| 20260905005436 | 27 | 84 | 0.0 | 12.9 | 0.00 | 0.00 | 0.00 | 29 | 3060.4 |
| 20260905004936 | 27 | 353 | 0.0 | 8.0 | 0.00 | 0.00 | 0.00 | 31 | 3062.4 |
| 20260905004436 | 28 | 108 | 0.0 | 8.0 | 0.00 | 0.00 | 0.00 | 26 | 3061.8 |
| 20260905003937 | 28 | 53 | 0.0 | 9.7 | 0.00 | 0.00 | 0.00 | 26 | 3061.5 |
| 20260905003436 | 28 | 99 | 0.0 | 12.9 | 0.00 | 0.00 | 0.00 | 26 | 3062.5 |
| 20260905002936 | 28 | 61 | 0.0 | 16.1 | 0.00 | 0.00 | 0.00 | 25 | 3062.3 |
| 20260905002436 | 28 | 70 | 0.0 | 16.1 | 0.00 | 0.00 | 0.00 | 25 | 3062.2 |
| 20260905002006 | 28 | 63 | 0.0 | 11.3 | 0.00 | 0.00 | 0.00 | 25 | 3062.0 |
| 20260905001436 | 28 | 252 | 1.6 | 11.3 | 0.00 | 0.00 | 0.00 | 25 | 3054.4 |
| 20260905000936 | 28 | 355 | 8.0 | 11.3 | 0.00 | 0.00 | 0.00 | 26 | 3054.4 |
| 20260905000505 | 28 | 61 | 0.0 | 12.9 | 0.00 | 0.00 | 0.00 | 26 | 3054.3 |
| 20260905000005 | 27 | 41 | 0.0 | 12.9 | 0.00 | 0.00 | 0.00 | 26 | 3052.9 |
| 20260904235505 | 28 | 83 | 0.0 | 8.0 | 0.00 | 0.00 | 0.00 | 26 | 3054.3 |
| 20260904235006 | 28 | 6 | 4.8 | 11.3 | 0.00 | 0.00 | 0.00 | 26 | 3054.3 |
| 20260904234506 | 28 | 12 | 0.0 | 11.3 | 0.00 | 0.00 | 0.00 | 26 | 3054.1 |
| 20260904233505 | 28 | 304 | 9.7 | 9.7 | 0.00 | 0.00 | 0.00 | 25 | 3053.9 |
| 20260904232506 | 28 | 14 | 0.0 | 9.7 | 0.00 | 0.00 | 0.00 | 25 | 3053.5 |
| 20260904232005 | 29 | 55 | 0.0 | 9.7 | 0.00 | 0.00 | 0.00 | 24 | 3054.7 |
| 20260904231506 | 30 | 251 | 0.0 | 14.5 | 0.00 | 0.00 | 0.00 | 23 | 3054.6 |
| 20260904231005 | 30 | 360 | 3.2 | 14.5 | 0.00 | 0.00 | 0.00 | 23 | 3055.9 |
| 20260904230505 | 31 | 40 | 3.2 | 16.1 | 0.00 | 0.00 | 0.00 | 23 | 3055.9 |
| 20260904230005 | 31 | 335 | 8.0 | 16.1 | 0.00 | 0.00 | 0.00 | 23 | 3055.7 |
| 20260904225505 | 31 | 352 | 0.0 | 14.5 | 0.00 | 0.00 | 0.00 | 23 | 3056.0 |
| 20260904225005 | 31 | 56 | 0.0 | 12.9 | 0.00 | 0.00 | 0.00 | 23 | 3056.1 |
| 20260904224505 | 31 | 268 | 4.8 | 12.9 | 0.00 | 0.00 | 0.00 | 23 | 3056.1 |
| 20260904224005 | 31 | 247 | 0.0 | 11.3 | 0.00 | 0.00 | 0.00 | 23 | 3056.1 |
| 20260904223505 | 30 | 284 | 3.2 | 16.1 | 0.00 | 0.00 | 0.00 | 24 | 3056.0 |
| 20260904222505 | 30 | 28 | 8.0 | 12.9 | 0.00 | 0.00 | 0.00 | 24 | 3055.1 |
| 20260904222005 | 30 | 279 | 0.0 | 14.5 | 0.00 | 0.00 | 0.00 | 24 | 3055.3 |
| 20260904221505 | 30 | 202 | 0.0 | 16.1 | 0.00 | 0.00 | 0.00 | 25 | 3055.3 |
| 20260904221005 | 30 | 5 | 12.9 | 16.1 | 0.00 | 0.00 | 0.00 | 24 | 3055.1 |
| 20260904220004 | 30 | 102 | 0.0 | 12.9 | 0.00 | 0.00 | 0.00 | 24 | 3055.6 |
| 20260904215505 | 30 | 198 | 0.0 | 12.9 | 0.00 | 0.00 | 0.00 | 24 | 3056.9 |
| 20260904215005 | 31 | 217 | 1.6 | 16.1 | 0.00 | 0.00 | 0.00 | 23 | 3056.9 |
| 20260904214504 | 31 | 355 | 4.8 | 16.1 | 0.00 | 0.00 | 0.00 | 22 | 3058.4 |
| 20260904214004 | 31 | 243 | 3.2 | 16.1 | 0.00 | 0.00 | 0.00 | 22 | 3058.3 |
| 20260904213005 | 30 | 199 | 9.7 | 16.1 | 0.00 | 0.00 | 0.00 | 22 | 3056.9 |
| 20260904212504 | 30 | 58 | 0.0 | 11.3 | 0.00 | 0.00 | 0.00 | 21 | 3056.7 |
| 20260904212004 | 31 | 32 | 1.6 | 11.3 | 0.00 | 0.00 | 0.00 | 21 | 3057.0 |
| 20260904211504 | 31 | 45 | 0.0 | 6.4 | 0.00 | 0.00 | 0.00 | 20 | 3059.6 |
| 20260904211005 | 31 | 100 | 0.0 | 6.4 | 0.00 | 0.00 | 0.00 | 21 | 3059.8 |
| 20260904210004 | 30 | 273 | 0.0 | 12.9 | 0.00 | 0.00 | 0.00 | 21 | 3059.0 |
| 20260904205504 | 31 | 4 | 0.0 | 6.4 | 0.00 | 0.00 | 0.00 | 20 | 3058.7 |
| 20260904205004 | 31 | 101 | 0.0 | 6.4 | 0.00 | 0.00 | 0.00 | 20 | 3060.7 |
| 20260904204504 | 32 | 192 | 6.4 | 6.4 | 0.00 | 0.00 | 0.00 | 18 | 3061.9 |
| 20260904204003 | 33 | 30 | 0.0 | 11.3 | 0.00 | 0.00 | 0.00 | 19 | 3062.4 |
| 20260904203503 | 32 | 92 | 1.6 | 11.3 | 0.00 | 0.00 | 0.00 | 21 | 3062.6 |
| 20260904202504 | 32 | 4 | 1.6 | 12.9 | 0.00 | 0.00 | 0.00 | 19 | 3062.7 |
| 20260904202004 | 32 | 275 | 11.3 | 12.9 | 0.00 | 0.00 | 0.00 | 19 | 3062.4 |
| 20260904201504 | 32 | 195 | 3.2 | 9.7 | 0.00 | 0.00 | 0.00 | 19 | 3062.6 |
| 20260904200503 | 32 | 63 | 1.6 | 12.9 | 0.00 | 0.00 | 0.00 | 20 | 3061.7 |
| 20260904195503 | 31 | 305 | 4.8 | 12.9 | 0.00 | 0.00 | 0.00 | 20 | 3062.1 |
| 20260904194503 | 31 | 100 | 0.0 | 6.4 | 0.00 | 0.00 | 0.00 | 20 | 3061.3 |
| 20260904194003 | 31 | 53 | 0.0 | 8.0 | 0.00 | 0.00 | 0.00 | 20 | 3063.0 |
| 20260904193503 | 31 | 9 | 0.0 | 12.9 | 0.00 | 0.00 | 0.00 | 20 | 3063.5 |
| 20260904192003 | 32 | 66 | 0.0 | 8.0 | 0.00 | 0.00 | 0.00 | 19 | 3065.1 |
| 20260904191503 | 32 | 27 | 0.0 | 8.0 | 0.00 | 0.00 | 0.00 | 19 | 3066.7 |
| 20260904191003 | 32 | 120 | 0.0 | 11.3 | 0.00 | 0.00 | 0.00 | 20 | 3065.5 |
| 20260904190503 | 32 | 275 | 0.0 | 11.3 | 0.00 | 0.00 | 0.00 | 19 | 3065.4 |
| 20260904185503 | 32 | 202 | 6.4 | 9.7 | 0.00 | 0.00 | 0.00 | 19 | 3065.9 |
| 20260904184502 | 31 | 181 | 1.6 | 14.5 | 0.00 | 0.00 | 0.00 | 20 | 3066.7 |
| 20260904183502 | 31 | 186 | 0.0 | 11.3 | 0.00 | 0.00 | 0.00 | 20 | 3066.8 |
| 20260904183002 | 31 | 207 | 0.0 | 11.3 | 0.00 | 0.00 | 0.00 | 20 | 3065.7 |
| 20260904182003 | 31 | 224 | 4.8 | 11.3 | 0.00 | 0.00 | 0.00 | 20 | 3067.5 |
| 20260904181502 | 31 | 250 | 0.0 | 9.7 | 0.00 | 0.00 | 0.00 | 21 | 3069.0 |
| 20260904180002 | 30 | 106 | 0.0 | 8.0 | 0.00 | 0.00 | 0.00 | 21 | 3068.7 |
| 20260904175502 | 30 | 252 | 0.0 | 14.5 | 0.00 | 0.00 | 0.00 | 21 | 3069.1 |
| 20260904175002 | 30 | 270 | 4.8 | 14.5 | 0.00 | 0.00 | 0.00 | 21 | 3068.7 |
| 20260904174002 | 30 | 83 | 0.0 | 11.3 | 0.00 | 0.00 | 0.00 | 21 | 3068.8 |
| 20260904173502 | 30 | 284 | 4.8 | 11.3 | 0.00 | 0.00 | 0.00 | 22 | 3069.0 |
| 20260904173002 | 30 | 265 | 0.0 | 9.7 | 0.00 | 0.00 | 0.00 | 21 | 3069.2 |
| 20260904172502 | 30 | 246 | 3.2 | 9.7 | 0.00 | 0.00 | 0.00 | 22 | 3069.5 |
| 20260904172002 | 29 | 46 | 0.0 | 6.4 | 0.00 | 0.00 | 0.00 | 22 | 3067.8 |
| 20260904171502 | 30 | 163 | 0.0 | 16.1 | 0.00 | 0.00 | 0.00 | 22 | 3070.9 |
| 20260904171001 | 29 | 46 | 3.2 | 16.1 | 0.00 | 0.00 | 0.00 | 22 | 3070.8 |
| 20260904170501 | 29 | 275 | 6.4 | 9.7 | 0.00 | 0.00 | 0.00 | 22 | 3070.9 |
| 20260904170001 | 29 | 201 | 0.0 | 9.7 | 0.00 | 0.00 | 0.00 | 22 | 3070.7 |
| 20260904165001 | 29 | 312 | 4.8 | 4.8 | 0.00 | 0.00 | 0.00 | 22 | 3071.0 |
| 20260904164501 | 29 | 35 | 0.0 | 9.7 | 0.00 | 0.00 | 0.00 | 23 | 3071.6 |
| 20260904163501 | 28 | 21 | 4.8 | 8.0 | 0.00 | 0.00 | 0.00 | 24 | 3070.4 |
| 20260904163001 | 28 | 63 | 0.0 | 14.5 | 0.00 | 0.00 | 0.00 | 23 | 3070.1 |
| 20260904162501 | 28 | 56 | 1.6 | 14.5 | 0.00 | 0.00 | 0.00 | 23 | 3070.1 |
| 20260904162001 | 28 | 157 | 0.0 | 9.7 | 0.00 | 0.00 | 0.00 | 23 | 3070.0 |
| 20260904161501 | 28 | 37 | 0.0 | 9.7 | 0.00 | 0.00 | 0.00 | 23 | 3071.3 |
| 20260904161001 | 28 | 258 | 0.0 | 9.7 | 0.00 | 0.00 | 0.00 | 22 | 3071.1 |
| 20260904160001 | 28 | 31 | 3.2 | 8.0 | 0.00 | 0.00 | 0.00 | 24 | 3071.1 |
| 20260904155501 | 28 | 115 | 0.0 | 9.7 | 0.00 | 0.00 | 0.00 | 24 | 3070.9 |
| 20260904155001 | 28 | 16 | 1.6 | 9.7 | 0.00 | 0.00 | 0.00 | 24 | 3070.9 |
| 20260904154500 | 27 | 288 | 0.0 | 4.8 | 0.00 | 0.00 | 0.00 | 25 | 3069.7 |
| 20260904153500 | 27 | 42 | 0.0 | 3.2 | 0.00 | 0.00 | 0.00 | 26 | 3069.9 |
| 20260904153000 | 27 | 194 | 0.0 | 4.8 | 0.00 | 0.00 | 0.00 | 26 | 3069.9 |
| 20260904150501 | 26 | 358 | 0.0 | 0.0 | 0.00 | 0.00 | 0.00 | 28 | 3067.6 |
| 20260904145500 | 25 | 53 | 0.0 | 0.0 | 0.00 | 0.00 | 0.00 | 30 | 3066.6 |
| 20260904145000 | 25 | 57 | 0.0 | 0.0 | 0.00 | 0.00 | 0.00 | 29 | 3066.5 |
| 20260904144500 | 25 | 19 | 0.0 | 0.0 | 0.00 | 0.00 | 0.00 | 30 | 3066.7 |
| 20260904144000 | 25 | 348 | 0.0 | 0.0 | 0.00 | 0.00 | 0.00 | 28 | 3066.3 |
| 20260904143500 | 25 | 350 | 0.0 | 4.8 | 0.00 | 0.00 | 0.00 | 30 | 3066.6 |
| 20260904143000 | 25 | 7 | 0.0 | 4.8 | 0.00 | 0.00 | 0.00 | 29 | 3066.3 |
| 20260904142500 | 24 | 56 | 0.0 | 1.6 | 0.00 | 0.00 | 0.00 | 30 | 3065.1 |
| 20260904142000 | 24 | 56 | 0.0 | 1.6 | 0.00 | 0.00 | 0.00 | 31 | 3065.3 |
| 20260904141000 | 24 | 58 | 0.0 | 0.0 | 0.00 | 0.00 | 0.00 | 30 | 3066.0 |
| 20260904135959 | 23 | 83 | 0.0 | 0.0 | 0.00 | 0.00 | 0.00 | 32 | 3064.4 |
| 20260904135459 | 23 | 43 | 0.0 | 0.0 | 0.00 | 0.00 | 0.00 | 32 | 3063.9 |
| 20260904135000 | 22 | 43 | 0.0 | 0.0 | 0.00 | 0.00 | 0.00 | 32 | 3063.5 |
| 20260904134459 | 22 | 43 | 0.0 | 8.0 | 0.00 | 0.00 | 0.00 | 31 | 3062.8 |
| 20260904132959 | 22 | 76 | 0.0 | 6.4 | 0.00 | 0.00 | 0.00 | 30 | 3061.6 |
| 20260904132459 | 22 | 102 | 1.6 | 9.7 | 0.00 | 0.00 | 0.00 | 31 | 3061.7 |
| 20260904131959 | 22 | 93 | 0.0 | 9.7 | 0.00 | 0.00 | 0.00 | 31 | 3061.3 |
| 20260904131459 | 22 | 119 | 0.0 | 8.0 | 0.00 | 0.00 | 0.00 | 31 | 3064.8 |
| 20260904130959 | 22 | 55 | 0.0 | 8.0 | 0.00 | 0.00 | 0.00 | 31 | 3064.4 |
| 20260904130459 | 16 | 80 | 0.0 | 0.0 | 0.00 | 0.00 | 0.00 | 55 | 3057.0 |
| 20260904125959 | 16 | 80 | 0.0 | 0.0 | 0.00 | 0.00 | 0.00 | 55 | 3056.7 |
| 20260904125458 | 16 | 80 | 0.0 | 0.0 | 0.00 | 0.00 | 0.00 | 55 | 3056.5 |
| 20260904124959 | 16 | 80 | 0.0 | 0.0 | 0.00 | 0.00 | 0.00 | 55 | 3056.4 |
| 20260904124459 | 16 | 80 | 0.0 | 0.0 | 0.00 | 0.00 | 0.00 | 55 | 3056.3 |
| 20260904123958 | 16 | 80 | 0.0 | 0.0 | 0.00 | 0.00 | 0.00 | 55 | 3056.3 |
| 20260904123458 | 16 | 80 | 0.0 | 0.0 | 0.00 | 0.00 | 0.00 | 55 | 3055.8 |
| 20260904122458 | 16 | 80 | 0.0 | 0.0 | 0.00 | 0.00 | 0.00 | 55 | 3055.3 |
| 20260904121459 | 16 | 80 | 0.0 | 0.0 | 0.00 | 0.00 | 0.00 | 55 | 3059.2 |
| 20260904120959 | 16 | 80 | 0.0 | 0.0 | 0.00 | 0.00 | 0.00 | 55 | 3058.8 |
| 20260904120458 | 16 | 80 | 0.0 | 0.0 | 0.00 | 0.00 | 0.00 | 55 | 3058.9 |
| 20260904115958 | 16 | 80 | 0.0 | 0.0 | 0.00 | 0.00 | 0.00 | 55 | 3059.3 |
| 20260904115458 | 16 | 80 | 0.0 | 0.0 | 0.00 | 0.00 | 0.00 | 55 | 3058.8 |
| 20260904114958 | 16 | 80 | 0.0 | 0.0 | 0.00 | 0.00 | 0.00 | 55 | 3058.8 |
| 20260904114458 | 16 | 80 | 0.0 | 0.0 | 0.00 | 0.00 | 0.00 | 55 | 3058.7 |
| 20260904113958 | 16 | 80 | 0.0 | 0.0 | 0.00 | 0.00 | 0.00 | 55 | 3058.7 |
| 20260904112958 | 16 | 80 | 0.0 | 0.0 | 0.00 | 0.00 | 0.00 | 55 | 3058.9 |
| 20260904112458 | 16 | 80 | 0.0 | 0.0 | 0.00 | 0.00 | 0.00 | 55 | 3058.9 |
| 20260904111958 | 16 | 80 | 0.0 | 0.0 | 0.00 | 0.00 | 0.00 | 55 | 3059.1 |
| 20260904111458 | 16 | 80 | 0.0 | 0.0 | 0.00 | 0.00 | 0.00 | 55 | 3060.0 |
| 20260904110958 | 16 | 80 | 0.0 | 0.0 | 0.00 | 0.00 | 0.00 | 55 | 3060.0 |
| 20260904110458 | 16 | 80 | 0.0 | 0.0 | 0.00 | 0.00 | 0.00 | 55 | 3060.0 |
| 20260904103958 | 16 | 80 | 0.0 | 0.0 | 0.00 | 0.00 | 0.00 | 55 | 3060.1 |
| 20260904103457 | 16 | 80 | 0.0 | 0.0 | 0.00 | 0.00 | 0.00 | 55 | 3059.8 |
| 20260904102957 | 16 | 80 | 0.0 | 0.0 | 0.00 | 0.00 | 0.00 | 55 | 3059.8 |
| 20260904102457 | 16 | 80 | 0.0 | 0.0 | 0.00 | 0.00 | 0.00 | 55 | 3059.5 |
| 20260904101958 | 16 | 80 | 0.0 | 0.0 | 0.00 | 0.00 | 0.00 | 55 | 3059.9 |
| 20260904101458 | 16 | 80 | 0.0 | 0.0 | 0.00 | 0.00 | 0.00 | 55 | 3058.3 |
| 20260904100957 | 16 | 79 | 0.0 | 0.0 | 0.00 | 0.00 | 0.00 | 55 | 3058.5 |
| 20260904100457 | 16 | 78 | 0.0 | 0.0 | 0.00 | 0.00 | 0.00 | 54 | 3058.7 |
| 20260904095957 | 16 | 78 | 0.0 | 0.0 | 0.00 | 0.00 | 0.00 | 53 | 3058.5 |
| 20260904094957 | 17 | 78 | 0.0 | 1.6 | 0.00 | 0.00 | 0.00 | 52 | 3059.4 |
| 20260904094457 | 17 | 78 | 0.0 | 1.6 | 0.00 | 0.00 | 0.00 | 52 | 3059.4 |
| 20260904093957 | 17 | 86 | 0.0 | 0.0 | 0.00 | 0.00 | 0.00 | 51 | 3059.0 |
| 20260904093457 | 17 | 86 | 0.0 | 0.0 | 0.00 | 0.00 | 0.00 | 48 | 3058.7 |
| 20260904092957 | 17 | 79 | 0.0 | 0.0 | 0.00 | 0.00 | 0.00 | 49 | 3058.5 |
| 20260904092457 | 17 | 119 | 0.0 | 0.0 | 0.00 | 0.00 | 0.00 | 50 | 3058.5 |
| 20260904091957 | 17 | 108 | 0.0 | 0.0 | 0.00 | 0.00 | 0.00 | 52 | 3058.4 |
| 20260904091457 | 16 | 104 | 0.0 | 3.2 | 0.00 | 0.00 | 0.00 | 54 | 3059.9 |
| 20260904090957 | 16 | 104 | 0.0 | 3.2 | 0.00 | 0.00 | 0.00 | 54 | 3059.9 |
| 20260904085956 | 16 | 137 | 0.0 | 1.6 | 0.00 | 0.00 | 0.00 | 53 | 3060.3 |
| 20260904085457 | 16 | 145 | 0.0 | 4.8 | 0.00 | 0.00 | 0.00 | 54 | 3060.2 |
| 20260904084956 | 16 | 104 | 0.0 | 4.8 | 0.00 | 0.00 | 0.00 | 53 | 3060.3 |
| 20260904084456 | 16 | 106 | 0.0 | 0.0 | 0.00 | 0.00 | 0.00 | 53 | 3060.4 |
| 20260904083956 | 16 | 72 | 0.0 | 0.0 | 0.00 | 0.00 | 0.00 | 53 | 3060.4 |
| 20260904082957 | 16 | 111 | 0.0 | 0.0 | 0.00 | 0.00 | 0.00 | 54 | 3060.6 |
| 20260904082456 | 16 | 118 | 0.0 | 0.0 | 0.00 | 0.00 | 0.00 | 52 | 3060.6 |
| 20260904081456 | 17 | 118 | 0.0 | 0.0 | 0.00 | 0.00 | 0.00 | 51 | 3060.8 |
| 20260904080957 | 17 | 118 | 0.0 | 0.0 | 0.00 | 0.00 | 0.00 | 50 | 3060.7 |
| 20260904080456 | 17 | 118 | 0.0 | 0.0 | 0.00 | 0.00 | 0.00 | 50 | 3060.6 |
| 20260904074956 | 17 | 118 | 0.0 | 0.0 | 0.00 | 0.00 | 0.00 | 50 | 3061.1 |
| 20260904074456 | 17 | 118 | 0.0 | 0.0 | 0.00 | 0.00 | 0.00 | 51 | 3061.2 |
| 20260904073956 | 17 | 118 | 0.0 | 0.0 | 0.00 | 0.00 | 0.00 | 50 | 3061.1 |
| 20260904073456 | 17 | 118 | 0.0 | 0.0 | 0.00 | 0.00 | 0.00 | 49 | 3061.3 |
| 20260904072956 | 18 | 118 | 0.0 | 0.0 | 0.00 | 0.00 | 0.00 | 49 | 3062.8 |
| 20260904072456 | 18 | 118 | 0.0 | 0.0 | 0.00 | 0.00 | 0.00 | 48 | 3062.6 |
| 20260904071956 | 18 | 118 | 0.0 | 0.0 | 0.00 | 0.00 | 0.00 | 48 | 3062.7 |
| 20260904071456 | 18 | 118 | 0.0 | 0.0 | 0.00 | 0.00 | 0.00 | 47 | 3062.7 |
| 20260904070955 | 18 | 118 | 0.0 | 0.0 | 0.00 | 0.00 | 0.00 | 47 | 3063.0 |
| 20260904070456 | 18 | 118 | 0.0 | 0.0 | 0.00 | 0.00 | 0.00 | 47 | 3062.9 |
| 20260904065956 | 18 | 118 | 0.0 | 0.0 | 0.00 | 0.00 | 0.00 | 47 | 3063.0 |
| 20260904064456 | 18 | 118 | 0.0 | 0.0 | 0.00 | 0.00 | 0.00 | 46 | 3063.3 |
| 20260904063955 | 19 | 118 | 0.0 | 0.0 | 0.00 | 0.00 | 0.00 | 46 | 3064.9 |
| 20260904063456 | 19 | 118 | 0.0 | 0.0 | 0.00 | 0.00 | 0.00 | 45 | 3064.8 |
| 20260904062955 | 19 | 118 | 0.0 | 0.0 | 0.00 | 0.00 | 0.00 | 45 | 3065.1 |
| 20260904062457 | 19 | 118 | 0.0 | 0.0 | 0.00 | 0.00 | 0.00 | 44 | 3065.0 |
| 20260904061955 | 20 | 118 | 0.0 | 0.0 | 0.00 | 0.00 | 0.00 | 44 | 3065.2 |
| 20260904061455 | 20 | 118 | 0.0 | 0.0 | 0.00 | 0.00 | 0.00 | 43 | 3064.0 |
| 20260904060955 | 20 | 118 | 0.0 | 0.0 | 0.00 | 0.00 | 0.00 | 43 | 3064.0 |
| 20260904060455 | 20 | 19 | 0.0 | 0.0 | 0.00 | 0.00 | 0.00 | 44 | 3064.1 |
| 20260904055455 | 20 | 20 | 0.0 | 0.0 | 0.00 | 0.00 | 0.00 | 42 | 3065.8 |
| 20260904054455 | 20 | 19 | 0.0 | 0.0 | 0.00 | 0.00 | 0.00 | 41 | 3065.7 |
| 20260904053955 | 20 | 20 | 0.0 | 0.0 | 0.00 | 0.00 | 0.00 | 40 | 3065.5 |
| 20260904053455 | 21 | 20 | 0.0 | 0.0 | 0.00 | 0.00 | 0.00 | 40 | 3065.7 |
| 20260904052955 | 21 | 20 | 0.0 | 0.0 | 0.00 | 0.00 | 0.00 | 40 | 3065.8 |
| 20260904052455 | 21 | 19 | 0.0 | 0.0 | 0.00 | 0.00 | 0.00 | 40 | 3066.2 |
| 20260904051454 | 21 | 19 | 0.0 | 0.0 | 0.00 | 0.00 | 0.00 | 39 | 3066.3 |
| 20260904050954 | 21 | 19 | 0.0 | 0.0 | 0.00 | 0.00 | 0.00 | 39 | 3066.4 |
| 20260904045955 | 22 | 19 | 0.0 | 0.0 | 0.00 | 0.00 | 0.00 | 38 | 3067.0 |
| 20260904044955 | 22 | 7 | 0.0 | 8.0 | 0.00 | 0.00 | 0.00 | 37 | 3067.0 |
| 20260904044455 | 22 | 7 | 0.0 | 8.0 | 0.00 | 0.00 | 0.00 | 37 | 3068.3 |
| 20260904043954 | 22 | 88 | 0.0 | 8.0 | 0.00 | 0.00 | 0.00 | 36 | 3068.9 |
| 20260904043454 | 22 | 66 | 0.0 | 1.6 | 0.00 | 0.00 | 0.00 | 36 | 3068.9 |
| 20260904042954 | 22 | 80 | 0.0 | 4.8 | 0.00 | 0.00 | 0.00 | 36 | 3069.0 |
| 20260904042454 | 22 | 360 | 0.0 | 4.8 | 0.00 | 0.00 | 0.00 | 35 | 3069.2 |
| 20260904040954 | 22 | 71 | 0.0 | 9.7 | 0.00 | 0.00 | 0.00 | 34 | 3066.4 |
| 20260904040454 | 22 | 16 | 0.0 | 9.7 | 0.00 | 0.00 | 0.00 | 32 | 3066.3 |
| 20260904035954 | 22 | 90 | 0.0 | 3.2 | 0.00 | 0.00 | 0.00 | 29 | 3066.1 |
| 20260904035454 | 22 | 20 | 0.0 | 3.2 | 0.00 | 0.00 | 0.00 | 29 | 3066.1 |
| 20260904034954 | 22 | 53 | 0.0 | 0.0 | 0.00 | 0.00 | 0.00 | 29 | 3066.0 |
| 20260904034454 | 22 | 53 | 0.0 | 0.0 | 0.00 | 0.00 | 0.00 | 28 | 3065.6 |
| 20260904033954 | 21 | 53 | 0.0 | 0.0 | 0.00 | 0.00 | 0.00 | 29 | 3063.7 |
| 20260904033454 | 21 | 53 | 0.0 | 0.0 | 0.00 | 0.00 | 0.00 | 29 | 3063.2 |
| 20260904032954 | 21 | 53 | 0.0 | 0.0 | 0.00 | 0.00 | 0.00 | 29 | 3063.1 |
| 20260904032454 | 21 | 53 | 0.0 | 0.0 | 0.00 | 0.00 | 0.00 | 29 | 3062.9 |
| 20260904031454 | 21 | 53 | 0.0 | 0.0 | 0.00 | 0.00 | 0.00 | 28 | 3059.8 |
| 20260904030953 | 22 | 53 | 0.0 | 0.0 | 0.00 | 0.00 | 0.00 | 28 | 3059.6 |
| 20260904025954 | 22 | 53 | 0.0 | 0.0 | 0.00 | 0.00 | 0.00 | 27 | 3058.9 |
| 20260904025453 | 22 | 53 | 0.0 | 0.0 | 0.00 | 0.00 | 0.00 | 27 | 3058.8 |
| 20260904024953 | 22 | 53 | 0.0 | 0.0 | 0.00 | 0.00 | 0.00 | 27 | 3058.7 |
| 20260904023953 | 22 | 53 | 0.0 | 0.0 | 0.00 | 0.00 | 0.00 | 27 | 3058.2 |
| 20260904023453 | 22 | 53 | 0.0 | 0.0 | 0.00 | 0.00 | 0.00 | 28 | 3058.1 |
| 20260904022953 | 22 | 53 | 0.0 | 0.0 | 0.00 | 0.00 | 0.00 | 27 | 3057.8 |
| 20260904021453 | 23 | 53 | 0.0 | 0.0 | 0.00 | 0.00 | 0.00 | 26 | 3055.8 |
| 20260904020953 | 23 | 53 | 0.0 | 0.0 | 0.00 | 0.00 | 0.00 | 25 | 3056.7 |
| 20260904020453 | 23 | 53 | 0.0 | 0.0 | 0.00 | 0.00 | 0.00 | 25 | 3056.7 |